Eugene, OR

6:45 AM PDT on April 20, 2018 (GMT -0700)
Mahlon Sweet

Weather History for KEUG - February, 2014

Change the Weather History Date:

Friday, February 28, 2014

  Actual Average Record
Temperature  
Mean Temperature 46 °F 44 °F  
Max Temperature 50 °F 53 °F 68 °F (1968)
Min Temperature 42 °F 36 °F 21 °F (1960)
Degree Days  
Heating Degree Days 19 21  
Month to date heating degree days 642 618  
Since 1 July heating degree days 3567 3327  
Cooling Degree Days 0 0  
Month to date cooling degree days 0 0  
Year to date cooling degree days 0 0  
Moisture  
Dew Point 44 °F    
Average Humidity 90    
Maximum Humidity 100    
Minimum Humidity 80    
Precipitation  
Precipitation 0.10 in 0.18 in 1.75 in (2011)
Month to date precipitation 7.97 5.43  
Year to date precipitation 10.55 12.30  
Sea Level Pressure  
Sea Level Pressure 29.53 in    
Wind  
Wind Speed 8 mph (NNE)    
Max Wind Speed 15 mph    
Max Gust Speed 17 mph    
Visibility 2 miles    
Events Fog , Rain    
T = Trace of Precipitation, MM = Missing Value Source: NWS Daily Summary

Daily Weather History Graph

Daily Weather History Graph

Search for Another Location

Airport or City:

Astronomy

Feb. 28, 2014 Rise Set
Actual Time 6:51 AM PST 6:00 PM PST
Civil Twilight 6:22 AM PST 6:29 PM PST
Nautical Twilight 5:48 AM PST 7:02 PM PST
Astronomical Twilight 5:15 AM PST 7:36 PM PST
Moon 6:09 AM PST (2/28) 5:44 PM PST (2/28)
Length of Visible Light 12h 06m
Length of Day
11h 08m
Waning Crescent, 0% of the Moon is Illuminated
Feb 28
Waning Crescent
Mar 1
New
Mar 8
First Quarter
Mar 16
Full
Mar 23
Last Quarter

Hourly Weather History & Observations

Time (PST) Temp. Windchill Dew Point Humidity Pressure Visibility Wind Dir Wind Speed Gust Speed Precip Events Conditions
12:00 AM 46.0 °F 41.4 °F 45.0 °F 96% 29.69 in 0.5 mi NNE 9.2 mph - N/A Fog Fog
12:31 AM 46.0 °F 41.4 °F 45.0 °F 96% 29.68 in 0.5 mi North 9.2 mph - N/A Fog Fog
12:38 AM 46.0 °F 41.9 °F 45.0 °F 96% 29.68 in 0.2 mi North 8.1 mph - N/A Fog Fog
12:47 AM 46.0 °F 41.4 °F 45.0 °F 96% 29.67 in 0.5 mi NNE 9.2 mph - N/A Fog Fog
12:54 AM 46.0 °F 42.5 °F 45.0 °F 96% 29.68 in 1.2 mi NNE 6.9 mph - N/A   Overcast
1:01 AM 46.0 °F 41.9 °F 45.0 °F 96% 29.67 in 1.5 mi NNE 8.1 mph - N/A   Overcast
1:09 AM 46.0 °F 41.9 °F 45.0 °F 96% 29.67 in 0.8 mi NNE 8.1 mph - N/A   Mist
1:54 AM 45.0 °F 39.3 °F 44.1 °F 97% 29.66 in 0.5 mi North 11.5 mph - N/A Fog Fog
2:02 AM 45.0 °F 40.1 °F 44.1 °F 97% 29.65 in 0.2 mi NNE 9.2 mph - N/A Fog Fog
2:40 AM 45.0 °F 40.6 °F 44.1 °F 97% 29.64 in 0.5 mi North 8.1 mph - N/A Fog Fog
2:54 AM 45.0 °F 41.2 °F 44.1 °F 97% 29.64 in 0.5 mi North 6.9 mph - N/A Fog Fog
3:42 AM 45.0 °F 39.3 °F 44.1 °F 97% 29.61 in 0.2 mi North 11.5 mph - N/A Fog Fog
3:54 AM 45.0 °F 38.9 °F 43.0 °F 93% 29.61 in 0.2 mi North 12.7 mph - N/A Fog Fog
4:54 AM 44.1 °F 38.1 °F 43.0 °F 96% 29.59 in 0.5 mi NNE 11.5 mph - N/A Fog Fog
5:54 AM 44.1 °F 37.7 °F 43.0 °F 96% 29.56 in 0.2 mi North 12.7 mph - N/A Fog Fog
6:54 AM 43.0 °F 36.8 °F 42.1 °F 97% 29.54 in 0.2 mi North 11.5 mph - N/A Fog Fog
7:04 AM 43.0 °F 37.2 °F 42.1 °F 97% 29.53 in 0.2 mi North 10.4 mph - N/A Fog Fog
7:22 AM 43.0 °F 38.2 °F 42.1 °F 97% 29.53 in 0.2 mi North 8.1 mph - N/A Fog Fog
7:54 AM 42.1 °F 35.7 °F 41.0 °F 96% 29.52 in 0.2 mi North 11.5 mph - N/A Fog Fog
8:36 AM 42.1 °F 36.1 °F 41.0 °F 96% 29.51 in 0.5 mi North 10.4 mph - N/A Fog Fog
8:54 AM 42.1 °F 34.9 °F 41.0 °F 96% 29.51 in 1.0 mi North 13.8 mph - N/A   Mist
9:54 AM 42.1 °F 36.6 °F 41.0 °F 96% 29.52 in 0.8 mi NNE 9.2 mph - N/A   Overcast
10:54 AM 42.1 °F 38.4 °F 41.0 °F 96% 29.51 in 1.0 mi NNE 5.8 mph - N/A   Overcast
11:15 AM 43.0 °F 38.2 °F 42.1 °F 97% 29.49 in 0.8 mi NNE 8.1 mph - N/A   Overcast
11:50 AM 44.6 °F 39.7 °F 42.8 °F 93% 29.48 in 1.0 mi NNE 9.2 mph - N/A   Overcast
11:54 AM 44.1 °F 39.5 °F 42.1 °F 93% 29.49 in 1.0 mi NNE 8.1 mph - N/A   Overcast
12:10 PM 44.1 °F 40.1 °F 42.1 °F 93% 29.48 in 2.0 mi NNE 6.9 mph - N/A   Overcast
12:43 PM 45.0 °F 39.3 °F 43.0 °F 93% 29.46 in 2.0 mi NNE 11.5 mph - N/A   Overcast
12:54 PM 45.0 °F 41.2 °F 43.0 °F 93% 29.47 in 2.5 mi NNE 6.9 mph - N/A   Overcast
1:45 PM 46.9 °F - 43.0 °F 86% 29.45 in 3.0 mi North 5.8 mph - N/A   Overcast
1:54 PM 46.9 °F - 43.0 °F 86% 29.45 in 3.0 mi NNW 5.8 mph - N/A   Overcast
2:22 PM 48.9 °F - 44.1 °F 83% 29.44 in 4.0 mi NE 4.6 mph - N/A   Haze
2:54 PM 50.0 °F - 45.0 °F 83% 29.43 in 6.0 mi North 4.6 mph - N/A   Haze
3:54 PM 48.9 °F - 45.0 °F 86% 29.44 in 9.0 mi SSW 8.1 mph - N/A   Overcast
4:54 PM 48.0 °F - 45.0 °F 89% 29.42 in 5.0 mi West 4.6 mph - 0.01 in Rain Light Rain
5:25 PM 48.0 °F - 46.0 °F 93% 29.42 in 5.0 mi South 10.4 mph - 0.01 in   Overcast
5:42 PM 48.0 °F - 45.0 °F 89% 29.42 in 4.0 mi South 6.9 mph - 0.01 in   Overcast
5:54 PM 48.0 °F - 45.0 °F 89% 29.42 in 4.0 mi South 6.9 mph - 0.01 in   Overcast
6:37 PM 46.9 °F - 45.0 °F 93% 29.42 in 4.0 mi West 6.9 mph - N/A   Overcast
6:54 PM 46.9 °F - 45.0 °F 93% 29.42 in 5.0 mi WSW 3.5 mph - N/A   Overcast
7:54 PM 46.9 °F - 45.0 °F 93% 29.44 in 5.0 mi South 3.5 mph - N/A   Overcast
8:54 PM 46.9 °F - 45.0 °F 93% 29.46 in 4.0 mi South 4.6 mph - 0.01 in Rain Light Rain
9:54 PM 46.0 °F 43.9 °F 45.0 °F 96% 29.47 in 4.0 mi South 4.6 mph - 0.02 in Rain Light Rain
10:54 PM 46.9 °F - 45.0 °F 93% 29.48 in 4.0 mi SSE 4.6 mph - 0.02 in Rain Light Rain
11:54 PM 46.0 °F - 45.0 °F 96% 29.49 in 4.0 mi Calm Calm - 0.03 in Rain Light Rain